TimeCDT,TemperatureF,Dew PointF,Humidity,Sea Level PressureIn,VisibilityMPH,Wind Direction,Wind SpeedMPH,Gust SpeedMPH,PrecipitationIn,Events,Conditions,WindDirDegrees,DateUTC
12:54 AM,73.9,66.9,79,30.04,10.0,SSE,5.8,-,N/A,,Scattered Clouds,160,2013-10-02 05:54:00
1:54 AM,73.0,66.9,81,30.04,10.0,South,4.6,-,N/A,,Mostly Cloudy,170,2013-10-02 06:54:00
2:54 AM,73.0,66.9,81,30.03,10.0,South,4.6,-,N/A,,Scattered Clouds,170,2013-10-02 07:54:00
3:54 AM,73.9,66.9,79,30.04,10.0,South,8.1,-,N/A,,Mostly Cloudy,180,2013-10-02 08:54:00
4:54 AM,73.0,66.9,81,30.04,10.0,South,5.8,-,N/A,,Mostly Cloudy,170,2013-10-02 09:54:00
5:54 AM,72.0,66.9,84,30.06,10.0,South,3.5,-,N/A,,Overcast,190,2013-10-02 10:54:00
6:54 AM,73.0,66.9,81,30.07,10.0,SE,3.5,-,N/A,,Mostly Cloudy,140,2013-10-02 11:54:00
7:54 AM,73.0,66.9,81,30.08,10.0,SE,4.6,-,N/A,,Mostly Cloudy,140,2013-10-02 12:54:00
8:54 AM,75.9,68.0,76,30.09,10.0,South,9.2,-,N/A,,Mostly Cloudy,180,2013-10-02 13:54:00
9:54 AM,78.1,66.0,66,30.10,10.0,SSW,15.0,20.7,N/A,,Overcast,200,2013-10-02 14:54:00
10:54 AM,78.1,66.0,66,30.10,10.0,South,10.4,-,N/A,,Overcast,190,2013-10-02 15:54:00
11:54 AM,80.1,64.9,60,30.09,10.0,SSW,11.5,-,N/A,,Overcast,200,2013-10-02 16:54:00
12:54 PM,82.0,64.9,56,30.07,10.0,SW,8.1,-,N/A,,Mostly Cloudy,220,2013-10-02 17:54:00
1:54 PM,84.0,64.9,53,30.06,10.0,WSW,6.9,-,N/A,,Mostly Cloudy,240,2013-10-02 18:54:00
2:54 PM,82.9,64.0,53,30.04,10.0,SW,5.8,-,N/A,,Overcast,220,2013-10-02 19:54:00
3:54 PM,82.0,62.1,51,30.02,10.0,SW,6.9,-,N/A,,Mostly Cloudy,220,2013-10-02 20:54:00
4:54 PM,82.0,59.0,45,30.02,10.0,South,9.2,-,N/A,,Overcast,180,2013-10-02 21:54:00
5:54 PM,81.0,61.0,50,30.01,10.0,SE,8.1,-,N/A,,Mostly Cloudy,140,2013-10-02 22:54:00
6:54 PM,78.1,64.0,62,30.01,10.0,SE,5.8,-,N/A,,Scattered Clouds,140,2013-10-02 23:54:00
7:54 PM,73.9,64.9,73,30.03,10.0,South,4.6,-,N/A,,Mostly Cloudy,190,2013-10-03 00:54:00
8:54 PM,75.9,66.0,71,30.03,10.0,SE,6.9,-,N/A,,Mostly Cloudy,130,2013-10-03 01:54:00
9:54 PM,75.0,66.0,73,30.04,10.0,SSE,3.5,-,N/A,,Mostly Cloudy,160,2013-10-03 02:54:00
10:54 PM,75.0,66.0,73,30.04,10.0,SE,4.6,-,N/A,,Mostly Cloudy,130,2013-10-03 03:54:00
11:54 PM,75.0,66.0,73,30.03,10.0,SSE,5.8,-,N/A,,Mostly Cloudy,150,2013-10-03 04:54:00